Location: Unspecified
(44.0704°N, 88.6889°W)
Time: 21:46:10
(UTC+02:00)

Transit 2A - Pass Details

Date: 22 June 2019
Orbit: 594 x 964 km, 66.7° (Epoch: 21 July)

Event Time Altitude Azimuth Distance (km) Brightness Sun altitude
Rises 16:09:11 0° 331° (NNW) 3,477 9.1 39.5°
Reaches altitude 10° 16:11:55 10° 338° (NNW) 2,479 8.5 40.0°
Maximum altitude 16:17:20 43° 49° (NE) 1,094 7.9 41.0°
Drops below altitude 10° 16:22:12 10° 122° (ESE) 2,226 9.4 41.9°
Sets 16:24:32 0° 129° (SE) 3,085 9.8 42.3°
